User: anonymous   Login
Location: Unspecified
(0.0000°N, 0.0000°E)
Time: 18:49:38
(UTC+00:00)
Language:

GEOEYE 1 - Orbit

View from above orbital plane
View from above orbital plane
View from above satellite
View from above satellite

Ground track
Ground track

The orbit data is extracted from the following two-line orbital elements,

1 33331U 08042A   16183.19124135 -.00000012  00000-0  66999-5 0  9990
2 33331  98.1234 256.9396 0008704 291.8310  68.1976 14.64124272417748
Epoch (UTC): 01 July 2016 04:35:23
Eccentricity: 0.0008704
inclination: 98.1234°
perigee height: 674 km
apogee height: 686 km
right ascension of ascending node: 256.9396°
argument of perigee: 291.8310°
revolutions per day: 14.64124272
mean anomaly at epoch: 68.1976°
orbit number at epoch: 41774

The dashed part of the orbit path shows where the satellite is in the earth's shadow,  

DLR